Regional Weather Roundup
Issued by NWS

Home | Current Version | Previous Version | Graphics & Text | Print | Product List | Glossary On
Versions: 1 2 3 4 5 6 7 8 9 10 11 12 13 14 15 16 17 18 19 20 21 22 23 24 25 26 27 28 29 30 31 32 33 34 35 36 37 38 39 40 41 42 43 44 45 46 47 48 49 50
000
ASUS45 KCYS 102010
RWRWY

WYOMING REGIONAL WEATHER ROUNDUP
NATIONAL WEATHER SERVICE CHEYENNE WY
100 PM MST WED FEB 10 2016

NOTE:  "FAIR" INDICATES FEW OR NO CLOUDS BELOW 12,000 FEET
WITH NO SIGNIFICANT WEATHER AND/OR OBSTRUCTIONS TO VISIBILITY.

WYZ001-102100-
YELLOWSTONE NATIONAL PARK

CITY           SKY/WX    TMP DP  RH WIND       PRES   REMARKS
LK YELLOWSTONE   N/A     28  16  60 E3        30.36F
W YELLOWSTONE  NOT AVBL

$$
WYZ002>013-054>058-071-098>099-102100-
NORTHERN WYOMING

CITY           SKY/WX    TMP DP  RH WIND       PRES   REMARKS
JACKSON        SUNNY     16  16 100 S9        30.39F WCI   4
CODY           FAIR      59  16  18 W12G17    30.11F
GREYBULL       NOT AVBL
WORLAND        NOT AVBL
SHERIDAN       PTSUNNY   59  18  20 N18       30.02S
BUFFALO        FAIR      56  24  29 N16G23    30.06F
GILLETTE       FAIR      55  25  31 NW18G24   30.03F
HULETT         FAIR      54  23  30 NW12      30.02S
NEWCASTLE      FAIR      55  18  22 NW24G30   30.00S

$$
WYZ014>020-022>026-101>103-102100-
CENTRAL WYOMING

CITY           SKY/WX    TMP DP  RH WIND       PRES   REMARKS
BIG PINEY      NOT AVBL
PINEDALE       FAIR      41  18  38 CALM      30.34S
DUBOIS         FAIR      52   9  17 NW22G30   30.24S
LANDER         NOT AVBL
RIVERTON       NOT AVBL
CASPER         FAIR      41  22  46 SW22G30   30.13F
DOUGLAS        NOT AVBL

$$
WYZ021-027>030-104>119-102100-
SOUTHERN WYOMING

CITY           SKY/WX    TMP DP  RH WIND       PRES   REMARKS
EVANSTON       NOT AVBL
KEMMERER       FAIR      37  21  52 W8        30.37F WCI  31
FORT BRIDGER   CLEAR     43  21  42 W21G26    30.38F
ROCK SPRINGS   NOT AVBL
DIXON          FAIR      32  19  58 CALM      30.37F
RAWLINS        FAIR      39  19  44 SW32G39   30.24F WCI  27
SARATOGA       FAIR      43  19  39 W16       30.24F
LARAMIE        FAIR      47  22  37 W17G23    30.17F
CHEYENNE       FAIR      56  19  23 W24G35    30.10F
TORRINGTON     FAIR      60  19  20 W17       30.02F
PINE BLUFFS    FAIR      59  23  25 NW20G29   30.06F

$$



USA.gov is the U.S. government's official web portal to all federal, state and local government web resources and services.